Weather History for KMCI - August, 2014

Change the Weather History Date:

Tuesday, August 19, 2014

  Actual Average Record
Temperature  
Mean Temperature 81 °F 77 °F  
Max Temperature 91 °F 87 °F 107 °F (1936)
Min Temperature 71 °F 67 °F 53 °F (1950)
Degree Days  
Heating Degree Days 0 0  
Month to date heating degree days 0 0  
Since 1 June heating degree days 3 9  
Since 1 July heating degree days 2 0  
Cooling Degree Days 16 12  
Month to date cooling degree days 193 245  
Year to date cooling degree days 917 1041  
Since 1 June cooling degree days 756 925  
Growing Degree Days 31 (Base 50)    
Moisture  
Dew Point 70 °F    
Average Humidity 73    
Maximum Humidity 93    
Minimum Humidity 52    
Precipitation  
Precipitation 0.15 in 0.12 in 2.25 in (1904)
Month to date precipitation 4.73 2.30  
Year to date precipitation 23.30 25.81  
Snow  
Snow 0.00 in 0.00 in 0.00 in ()
Month to date snowfall 0.0 0.0  
Since 1 June snowfall 0.0 0.0  
Since 1 July snowfall 0.0 0.0  
Snow Depth 0.00 in    
Sea Level Pressure  
Sea Level Pressure 29.78 in    
Wind  
Wind Speed 6 mph (SSW)    
Max Wind Speed 23 mph    
Max Gust Speed 28 mph    
Visibility 9 miles    
Events Rain , Thunderstorm    
T = Trace of Precipitation, MM = Missing Value Source: NWS Daily Summary

Daily Weather History Graph

Daily Weather History Graph

Search for Another Location

Airport or City:

Trip Planner

Search our weather history database for the weather conditions in past years. The results will help you decide how hot, cold, wet, or windy it might be!

Date:

Astronomy

Aug. 19, 2014 Rise Set
Actual Time 6:35 AM CDT 8:08 PM CDT
Civil Twilight 6:07 AM CDT 8:37 PM CDT
Nautical Twilight 5:32 AM CDT 9:11 PM CDT
Astronomical Twilight 4:56 AM CDT 9:47 PM CDT
Moon 1:28 AM CDT (8/19) 4:05 PM CDT (8/19)
Length of Visible Light 14h 29m
Length of Day
13h 33m
Waning Crescent, 29% of the Moon is Illuminated
Aug 19
Waning Crescent
Aug 25
New
Sep 2
First Quarter
Sep 8
Full
Sep 15
Last Quarter

Hourly Weather History & Observations

Time (CDT) Temp. Heat Index Dew Point Humidity Pressure Visibility Wind Dir Wind Speed Gust Speed Precip Events Conditions
12:53 AM 73.9 °F - 70.0 °F 87% 29.81 in 10.0 mi SSE 8.1 mph - N/A   Partly Cloudy
1:00 AM 73.9 °F - 70.0 °F 87% 29.81 in 10.0 mi SSE 8.1 mph - N/A   Partly Cloudy
1:53 AM 73.0 °F - 70.0 °F 90% 29.78 in 10.0 mi South 8.1 mph - N/A   Partly Cloudy
2:53 AM 73.4 °F - 69.8 °F 88% 29.75 in 10.0 mi South 6.9 mph - N/A   Scattered Clouds
3:25 AM 73.9 °F - 70.0 °F 87% 29.78 in 10.0 mi SSW 11.5 mph - N/A Thunderstorm Overcast
3:30 AM 75.0 °F - 70.0 °F 84% 29.81 in 10.0 mi SW 17.3 mph - N/A Thunderstorm Thunderstorm
3:34 AM 75.0 °F - 70.0 °F 84% 29.81 in 8.0 mi SW 21.9 mph 26.5 mph 0.01 in Rain , Thunderstorm Light Thunderstorms and Rain
3:41 AM 72.0 °F - 68.0 °F 87% 29.80 in 1.8 mi SSW 17.3 mph - 0.12 in Rain , Thunderstorm Heavy Thunderstorms and Rain
3:53 AM 72.0 °F - 66.9 °F 84% 29.75 in 4.0 mi SSW 13.8 mph - 0.13 in Rain , Thunderstorm Light Thunderstorms and Rain
4:17 AM 73.0 °F - 69.1 °F 87% 29.76 in 10.0 mi SW 8.1 mph - 0.02 in Thunderstorm Scattered Clouds
4:25 AM 73.0 °F - 69.1 °F 87% 29.76 in 10.0 mi SW 8.1 mph - 0.02 in   Mostly Cloudy
4:53 AM 72.0 °F - 69.1 °F 91% 29.73 in 10.0 mi SSW 6.9 mph - 0.02 in   Mostly Cloudy
5:12 AM 72.0 °F - 69.1 °F 91% 29.76 in 10.0 mi Calm Calm - 0.00 in Rain Light Rain
5:53 AM 73.0 °F - 69.1 °F 87% 29.75 in 10.0 mi ENE 4.6 mph - 0.00 in   Overcast
6:53 AM 71.6 °F - 69.8 °F 94% 29.82 in 10.0 mi West 5.8 mph - N/A   Overcast
7:53 AM 72.0 °F - 68.0 °F 87% 29.78 in 10.0 mi SW 11.5 mph - N/A   Mostly Cloudy
8:53 AM 75.9 °F - 68.0 °F 76% 29.79 in 10.0 mi WNW 5.8 mph - N/A   Scattered Clouds
9:53 AM 80.1 °F 82.9 °F 69.1 °F 69% 29.81 in 10.0 mi Variable 3.5 mph - N/A   Scattered Clouds
10:53 AM 82.0 °F 85.9 °F 70.0 °F 67% 29.81 in 10.0 mi WNW 5.8 mph - N/A   Scattered Clouds
11:53 AM 84.0 °F 89.0 °F 71.1 °F 65% 29.82 in 10.0 mi Variable 4.6 mph - N/A   Partly Cloudy
12:53 PM 87.1 °F 92.0 °F 70.0 °F 57% 29.82 in 10.0 mi WNW 3.5 mph - N/A   Clear
1:53 PM 87.1 °F 92.8 °F 71.1 °F 59% 29.80 in 10.0 mi SW 3.5 mph - N/A   Partly Cloudy
2:53 PM 89.1 °F 96.0 °F 72.0 °F 57% 29.79 in 10.0 mi Calm Calm - N/A   Partly Cloudy
3:53 PM 89.1 °F 94.1 °F 70.0 °F 53% 29.78 in 10.0 mi SW 5.8 mph - N/A   Partly Cloudy
4:53 PM 90.0 °F 96.9 °F 72.0 °F 55% 29.77 in 10.0 mi SW 4.6 mph - N/A   Partly Cloudy
5:53 PM 90.0 °F 96.9 °F 72.0 °F 55% 29.77 in 10.0 mi West 3.5 mph - N/A   Partly Cloudy
6:53 PM 89.1 °F 95.0 °F 71.1 °F 55% 29.76 in 10.0 mi Calm Calm - N/A   Partly Cloudy
7:53 PM 84.0 °F 90.2 °F 73.0 °F 69% 29.75 in 10.0 mi SSE 4.6 mph - N/A   Partly Cloudy
8:53 PM 84.0 °F 90.2 °F 73.0 °F 69% 29.76 in 10.0 mi East 6.9 mph - N/A   Partly Cloudy
9:53 PM 82.9 °F 87.5 °F 71.1 °F 67% 29.77 in 10.0 mi ESE 9.2 mph - N/A   Clear
10:53 PM 79.0 °F - 73.0 °F 82% 29.78 in 10.0 mi SE 6.9 mph - N/A   Clear
11:53 PM 79.0 °F - 72.0 °F 79% 29.78 in 10.0 mi South 9.2 mph - N/A   Partly Cloudy